Overview Statistics Trail Chart Weather Telemetry Raw packets
 

This is the latest recevied weather packets stored in our database for station/object KF6RAL-6. If no packets are shown the sender has not sent any weather packets the latest 10 day(s).

<< 23 24 25 26 27 28 29 >>
Time Temp. Humidity Pressure Rain* Wind** Luminosity Snow
1788457627 20.56° C 50% 1013.4 hPa 0 mm - - -
1788457206 20.56° C 51% 1013.4 hPa 0 mm - - -
1788456785 20.56° C 51% 1013.4 hPa 0 mm - - -
1788456364 20.56° C 52% 1013.5 hPa 0 mm - - -
1788455945 20° C 51% 1013.6 hPa 0 mm - - -
1788455522 20° C 49% 1013.6 hPa 0 mm - - -
1788455102 20° C 49% 1013.7 hPa 0 mm - - -
1788454680 20° C 47% 1012.9 hPa 0 mm - - -
1788454261 20.56° C 46% 1013.2 hPa 0 mm - - -
1788453838 20.56° C 44% 1013.2 hPa 0 mm - - -
1788453417 20.56° C 42% 1013.2 hPa 0 mm - - -
1788452996 20.56° C 45% 1013.1 hPa 0 mm - - -
1788452576 20.56° C 40% 1013.2 hPa 0 mm - - -
1788452154 20.56° C 42% 1013.2 hPa 0 mm - - -
1788451733 20.56° C 37% 1013.2 hPa 0 mm - - -
1788451312 20.56° C 37% 1013.2 hPa 0 mm - - -
1788450891 20° C 38% 1013.2 hPa 0 mm - - -
1788449631 19.44° C 41% 1013.3 hPa 0 mm - - -
1788449207 19.44° C 42% 1013.4 hPa 0 mm - - -
1788448786 18.89° C 43% 1013.6 hPa 0 mm - - -
1788448365 18.89° C 43% 1013.6 hPa 0 mm - - -
1788447947 18.89° C 39% 1013.6 hPa 0 mm - - -
1788447523 18.89° C 41% 1013.6 hPa 0 mm - - -
1788446260 18.33° C 43% 1013.5 hPa 0 mm - - -
1788445419 18.33° C 44% 1013.5 hPa 0 mm - - -

* Rain latest hour (hover to see other rain measurements)
** Current wind speed in m/s (hover to see current wind gust speed)